Weather History for KMRB - August, 2012

Change the Weather History Date:

Thursday, August 2, 2012

  Actual Average Record
Temperature  
Mean Temperature 77 °F 74 °F  
Max Temperature 90 °F 85 °F 103 °F (1991)
Min Temperature 64 °F 63 °F 51 °F (1992)
Degree Days  
Heating Degree Days 0 0  
Month to date heating degree days 0 0  
Since 1 June heating degree days 14 25  
Since 1 July heating degree days 0 1  
Cooling Degree Days 12 9  
Month to date cooling degree days 23 18  
Year to date cooling degree days 741 561  
Since 1 June cooling degree days 587 504  
Growing Degree Days 26 (Base 50)    
Moisture  
Dew Point 66 °F    
Average Humidity 74    
Maximum Humidity 100    
Minimum Humidity 47    
Precipitation  
Precipitation 0.01 in 0.11 in 3.00 in (1946)
Month to date precipitation 0.43 0.22  
Year to date precipitation 19.78 23.38  
Sea Level Pressure  
Sea Level Pressure 29.90 in    
Wind  
Wind Speed 1 mph (East)    
Max Wind Speed 6 mph    
Max Gust Speed 9 mph    
Visibility 6 miles    
Events      
T = Trace of Precipitation, MM = Missing Value Source: NWS Daily Summary

Daily Weather History Graph

Daily Weather History Graph

Search for Another Location

Airport or City:

Trip Planner

Search our weather history database for the weather conditions in past years. The results will help you decide how hot, cold, wet, or windy it might be!

Date:

Astronomy

Aug. 02, 2012 Rise Set
Actual Time 6:13 AM EDT 8:22 PM EDT
Civil Twilight 5:43 AM EDT 8:52 PM EDT
Nautical Twilight 5:06 AM EDT 9:28 PM EDT
Astronomical Twilight 4:26 AM EDT 10:08 PM EDT
Moon 8:28 PM EDT (8/2) 6:47 AM EDT (8/2)
Length of Visible Light 15h 09m
Length of Day
14h 09m
Full, 100% of the Moon is Illuminated
Aug 2
Full
Aug 9
Last Quarter
Aug 17
New
Aug 24
First Quarter
Aug 31
Full

Hourly Weather History & Observations

Time (EDT) Temp. Heat Index Dew Point Humidity Pressure Visibility Wind Dir Wind Speed Gust Speed Precip Events Conditions
12:53 AM 68.0 °F - 66.2 °F 94% 29.89 in 6.0 mi Calm Calm - N/A   Clear
1:42 AM 66.2 °F - 64.4 °F 94% 29.89 in 2.0 mi Calm Calm - N/A   Clear
1:53 AM 66.0 °F - 64.9 °F 96% 29.88 in 3.0 mi Calm Calm - N/A   Clear
2:04 AM 66.2 °F - 64.4 °F 94% 29.89 in 2.0 mi Calm Calm - N/A   Clear
2:16 AM 66.2 °F - 64.4 °F 94% 29.89 in 3.0 mi Calm Calm - N/A   Clear
2:53 AM 66.2 °F - 64.4 °F 94% 29.88 in 5.0 mi Calm Calm - N/A   Clear
3:30 AM 64.4 °F - 64.4 °F 100% 29.89 in 2.5 mi Calm Calm - N/A   Clear
3:40 AM 66.2 °F - 64.4 °F 94% 29.88 in 4.0 mi Calm Calm - N/A   Clear
3:53 AM 66.0 °F - 64.0 °F 93% 29.87 in 3.0 mi Calm Calm - N/A   Clear
4:09 AM 64.4 °F - 62.6 °F 94% 29.88 in 1.8 mi South 4.6 mph - N/A   Partly Cloudy
4:20 AM 64.4 °F - 64.4 °F 100% 29.89 in 2.5 mi Calm Calm - N/A   Clear
4:53 AM 64.9 °F - 64.0 °F 97% 29.88 in 1.8 mi Calm Calm - 0.01 in   Clear
5:19 AM 64.4 °F - 62.6 °F 94% 29.90 in 2.5 mi Calm Calm - N/A   Clear
5:53 AM 64.0 °F - 63.0 °F 96% 29.90 in 4.0 mi Calm Calm - N/A   Scattered Clouds
6:27 AM 64.4 °F - 62.6 °F 94% 29.91 in 2.0 mi Calm Calm - N/A   Scattered Clouds
6:34 AM 64.4 °F - 62.6 °F 94% 29.91 in 1.8 mi Calm Calm - N/A   Mostly Cloudy
6:53 AM 66.0 °F - 64.0 °F 93% 29.91 in 4.0 mi Calm Calm - N/A   Mostly Cloudy
7:04 AM 64.4 °F - 64.4 °F 100% 29.92 in 2.0 mi Calm Calm - N/A   Partly Cloudy
7:31 AM 66.2 °F - 64.4 °F 94% 29.93 in 3.0 mi Calm Calm - N/A   Clear
7:53 AM 69.1 °F - 66.0 °F 90% 29.92 in 4.0 mi Calm Calm - N/A   Clear
8:53 AM 71.1 °F - 66.9 °F 87% 29.93 in 7.0 mi Calm Calm - N/A   Clear
9:53 AM 75.0 °F - 69.1 °F 82% 29.93 in 10.0 mi Calm Calm - N/A   Clear
10:53 AM 79.0 °F - 68.0 °F 69% 29.92 in 10.0 mi SSE 4.6 mph - N/A   Clear
11:53 AM 82.0 °F 84.9 °F 68.0 °F 62% 29.92 in 10.0 mi Calm Calm - N/A   Clear
12:53 PM 84.9 °F 88.2 °F 68.0 °F 57% 29.92 in 10.0 mi NNE 3.5 mph - N/A   Clear
1:53 PM 86.0 °F 89.4 °F 68.0 °F 55% 29.91 in 10.0 mi Calm Calm - N/A   Mostly Cloudy
2:53 PM 88.0 °F 91.4 °F 68.0 °F 51% 29.89 in 10.0 mi Calm Calm - N/A   Partly Cloudy
3:53 PM 88.0 °F 90.3 °F 66.0 °F 48% 29.88 in 10.0 mi Calm Calm - N/A   Mostly Cloudy
4:53 PM 89.1 °F 91.3 °F 66.0 °F 46% 29.87 in 10.0 mi ENE 3.5 mph - N/A   Partly Cloudy
5:53 PM 87.8 °F 91.4 °F 68.0 °F 52% 29.88 in 10.0 mi Calm Calm - N/A   Partly Cloudy
6:53 PM 87.1 °F 91.3 °F 69.1 °F 55% 29.88 in 10.0 mi ENE 3.5 mph - N/A   Clear
7:53 PM 84.0 °F 87.0 °F 68.0 °F 58% 29.90 in 10.0 mi Calm Calm - N/A   Clear
8:53 PM 79.0 °F - 70.0 °F 74% 29.91 in 10.0 mi Calm Calm - N/A   Clear
9:53 PM 78.1 °F - 69.1 °F 74% 29.91 in 9.0 mi Calm Calm - N/A   Clear
10:53 PM 73.9 °F - 70.0 °F 87% 29.93 in 7.0 mi Calm Calm - N/A   Clear
11:53 PM 73.0 °F - 70.0 °F 90% 29.93 in 6.0 mi Calm Calm - N/A   Clear